When you browse on this site, cookies collect data to enhance your experience and personalize the content and advertising you see.
Visit our Privacy Policy to learn more. By continuing to use the site, you agree to this use of cookies and data.
  • In Romania
  • List of Countries
  • For 7 days
  • Water Temperature
  • Satellite Maps
  • Weather Map
  • Weather Widgets
  • user-avatar
    Login

    Hourly Weather Batumi

    Today, 24 May, Friday

    Time Temperature Precipitation Wind Pressure Humidity
    00:00 +21°C° 0.1 mm 3 mps 761 mmHg 83%
    01:00 +20°C° 0 mm 3 mps 761 mmHg 83%
    02:00 +20°C° 0 mm 3 mps 761 mmHg 83%
    03:00 +20°C° 0 mm 3 mps 760 mmHg 83%
    04:00 +20°C° 0 mm 3 mps 760 mmHg 83%
    05:00 +20°C° 0 mm 3 mps 760 mmHg 82%
    06:00 +21°C° 0 mm 3 mps 760 mmHg 82%
    07:00 +25°C° 0 mm 3 mps 759 mmHg 72%
    08:00 +28°C° 0 mm 2 mps 759 mmHg 62%
    09:00 +31°C° 0 mm 1 mps 758 mmHg 51%
    10:00 +32°C° 0.1 mm 2 mps 758 mmHg 48%
    11:00 +34°C° 0.1 mm 2 mps 758 mmHg 45%
    12:00 +34°C° 0.1 mm 3 mps 758 mmHg 43%
    13:00 +34°C° 0.2 mm 3 mps 758 mmHg 44%
    14:00 +32°C° 0.2 mm 2 mps 757 mmHg 46%
    15:00 +32°C° 0.2 mm 2 mps 757 mmHg 48%
    16:00 +31°C° 0.1 mm 3 mps 757 mmHg 54%
    17:00 +31°C° 0.1 mm 3 mps 757 mmHg 59%
    18:00 +30°C° 0.1 mm 3 mps 757 mmHg 64%
    19:00 +28°C° 0.6 mm 4 mps 757 mmHg 72%
    20:00 +26°C° 0.6 mm 5 mps 757 mmHg 80%
    21:00 +23°C° 0.6 mm 6 mps 758 mmHg 88%
    22:00 +23°C° 0 mm 5 mps 758 mmHg 85%
    23:00 +25°C° 0 mm 5 mps 758 mmHg 82%

    Tomorrow, 25 May, Saturday

    Time Temperature Precipitation Wind Pressure Humidity
    00:00 +25°C° 0 mm 4 mps 758 mmHg 79%
    01:00 +25°C° 0 mm 4 mps 758 mmHg 76%
    02:00 +25°C° 0 mm 5 mps 757 mmHg 74%
    03:00 +25°C° 0 mm 5 mps 757 mmHg 71%
    04:00 +25°C° 0 mm 5 mps 757 mmHg 69%
    05:00 +26°C° 0 mm 6 mps 756 mmHg 66%
    06:00 +26°C° 0 mm 6 mps 756 mmHg 63%
    07:00 +27°C° 0.1 mm 6 mps 756 mmHg 59%
    08:00 +28°C° 0.1 mm 5 mps 755 mmHg 56%
    09:00 +30°C° 0.1 mm 5 mps 755 mmHg 53%
    10:00 +30°C° 0 mm 5 mps 756 mmHg 53%
    11:00 +30°C° 0 mm 5 mps 756 mmHg 53%
    12:00 +32°C° 0 mm 5 mps 757 mmHg 54%
    13:00 +29°C° 0.7 mm 5 mps 757 mmHg 66%
    14:00 +27°C° 0.7 mm 5 mps 758 mmHg 78%
    15:00 +25°C° 0.7 mm 5 mps 758 mmHg 90%
    16:00 +23°C° 3 mm 4 mps 758 mmHg 93%
    17:00 +22°C° 3 mm 3 mps 759 mmHg 96%
    18:00 +21°C° 3 mm 2 mps 759 mmHg 99%
    19:00 +21°C° 1.3 mm 2 mps 759 mmHg 98%
    20:00 +21°C° 1.3 mm 2 mps 760 mmHg 98%
    21:00 +22°C° 1.3 mm 1 mps 761 mmHg 97%
    22:00 +21°C° 0.1 mm 1 mps 761 mmHg 97%
    23:00 +21°C° 0.1 mm 1 mps 761 mmHg 96%

    Day after tomorrow, 26 May, Sunday

    Time Temperature Precipitation Wind Pressure Humidity
    00:00 +18°C° 0.1 mm 0 mps 761 mmHg 96%
    01:00 +18°C° 0.2 mm 0 mps 761 mmHg 95%
    02:00 +18°C° 0.2 mm 0 mps 761 mmHg 95%
    03:00 +18°C° 0.2 mm 0 mps 761 mmHg 95%
    04:00 +18°C° 0.3 mm 0 mps 761 mmHg 94%
    05:00 +19°C° 0.3 mm 0 mps 761 mmHg 94%
    06:00 +19°C° 0.3 mm 0 mps 761 mmHg 93%
    07:00 +23°C° 0.1 mm 1 mps 761 mmHg 89%
    08:00 +24°C° 0.1 mm 1 mps 761 mmHg 85%
    09:00 +25°C° 0.1 mm 2 mps 761 mmHg 80%
    10:00 +26°C° 0.1 mm 2 mps 761 mmHg 79%
    11:00 +26°C° 0.1 mm 2 mps 761 mmHg 78%
    12:00 +26°C° 0.1 mm 2 mps 760 mmHg 78%
    13:00 +26°C° 0.1 mm 2 mps 760 mmHg 78%
    14:00 +26°C° 0.1 mm 2 mps 760 mmHg 78%
    15:00 +26°C° 0.1 mm 3 mps 760 mmHg 79%
    16:00 +25°C° 0.1 mm 2 mps 761 mmHg 83%
    17:00 +24°C° 0.1 mm 2 mps 761 mmHg 86%
    18:00 +23°C° 0.1 mm 2 mps 761 mmHg 90%
    19:00 +21°C° 0 mm 2 mps 762 mmHg 92%
    20:00 +21°C° 0 mm 1 mps 763 mmHg 94%
    21:00 +20°C° 0 mm 1 mps 764 mmHg 96%
    22:00 +19°C° 0 mm 1 mps 764 mmHg 95%
    23:00 +19°C° 0 mm 1 mps 764 mmHg 94%

    27 May, Monday

    Time Temperature Precipitation Wind Pressure Humidity
    00:00 +18°C° 0 mm 2 mps 764 mmHg 93%
    01:00 +17°C° 0 mm 2 mps 764 mmHg 91%
    02:00 +17°C° 0 mm 2 mps 764 mmHg 88%
    03:00 +17°C° 0 mm 2 mps 764 mmHg 86%
    04:00 +18°C° 0 mm 2 mps 764 mmHg 84%
    05:00 +18°C° 0 mm 2 mps 764 mmHg 82%
    06:00 +18°C° 0 mm 2 mps 765 mmHg 80%
    07:00 +21°C° 0 mm 2 mps 764 mmHg 71%
    08:00 +24°C° 0 mm 2 mps 764 mmHg 61%
    09:00 +27°C° 0 mm 2 mps 764 mmHg 52%
    10:00 +27°C° 0 mm 2 mps 764 mmHg 49%
    11:00 +28°C° 0 mm 2 mps 764 mmHg 46%
    12:00 +29°C° 0 mm 3 mps 763 mmHg 44%
    13:00 +29°C° 0 mm 3 mps 763 mmHg 44%
    14:00 +29°C° 0 mm 2 mps 763 mmHg 44%
    15:00 +29°C° 0 mm 2 mps 763 mmHg 44%
    16:00 +28°C° 0 mm 2 mps 763 mmHg 50%
    17:00 +26°C° 0 mm 2 mps 763 mmHg 56%
    18:00 +25°C° 0 mm 1 mps 763 mmHg 62%
    19:00 +24°C° 0 mm 2 mps 764 mmHg 68%
    20:00 +21°C° 0 mm 2 mps 764 mmHg 74%
    21:00 +19°C° 0 mm 2 mps 765 mmHg 79%
    22:00 +19°C° 0 mm 2 mps 765 mmHg 74%
    23:00 +19°C° 0 mm 2 mps 765 mmHg 68%

    28 May, Tuesday

    Time Temperature Precipitation Wind Pressure Humidity
    00:00 +19°C° 0 mm 3 mps 765 mmHg 63%
    01:00 +19°C° 0 mm 3 mps 765 mmHg 60%
    02:00 +19°C° 0 mm 3 mps 765 mmHg 57%
    03:00 +18°C° 0 mm 3 mps 765 mmHg 54%
    04:00 +19°C° 0 mm 3 mps 765 mmHg 55%
    05:00 +19°C° 0 mm 3 mps 765 mmHg 56%
    06:00 +20°C° 0 mm 3 mps 765 mmHg 56%
    07:00 +24°C° 0 mm 2 mps 764 mmHg 49%
    08:00 +28°C° 0 mm 2 mps 764 mmHg 41%
    09:00 +31°C° 0 mm 1 mps 764 mmHg 34%
    10:00 +32°C° 0 mm 2 mps 763 mmHg 33%
    11:00 +34°C° 0 mm 2 mps 763 mmHg 32%
    12:00 +34°C° 0 mm 3 mps 762 mmHg 32%
    13:00 +34°C° 0 mm 3 mps 762 mmHg 33%
    14:00 +34°C° 0 mm 2 mps 762 mmHg 35%
    15:00 +32°C° 0 mm 2 mps 762 mmHg 36%
    16:00 +31°C° 0 mm 2 mps 762 mmHg 44%
    17:00 +30°C° 0 mm 1 mps 762 mmHg 52%
    18:00 +29°C° 0 mm 1 mps 762 mmHg 60%
    19:00 +27°C° 0 mm 1 mps 762 mmHg 64%
    20:00 +25°C° 0 mm 2 mps 763 mmHg 68%
    21:00 +23°C° 0 mm 2 mps 764 mmHg 72%
    22:00 +23°C° 0 mm 2 mps 763 mmHg 70%
    23:00 +23°C° 0 mm 2 mps 763 mmHg 67%

    29 May, Wednesday

    Time Temperature Precipitation Wind Pressure Humidity
    00:00 +23°C° 0 mm 2 mps 763 mmHg 65%
    01:00 +23°C° 0 mm 2 mps 763 mmHg 63%
    02:00 +23°C° 0 mm 2 mps 763 mmHg 62%
    03:00 +23°C° 0 mm 2 mps 763 mmHg 60%
    04:00 +22°C° 0 mm 3 mps 763 mmHg 60%
    05:00 +22°C° 0 mm 3 mps 763 mmHg 60%
    06:00 +24°C° 0 mm 3 mps 763 mmHg 61%
    07:00 +27°C° 0 mm 2 mps 763 mmHg 54%
    08:00 +30°C° 0 mm 2 mps 762 mmHg 46%
    09:00 +34°C° 0 mm 1 mps 762 mmHg 39%
    10:00 +34°C° 0 mm 1 mps 761 mmHg 37%
    11:00 +36°C° 0 mm 2 mps 761 mmHg 36%
    12:00 +37°C° 0 mm 2 mps 760 mmHg 34%
    13:00 +36°C° 0 mm 2 mps 760 mmHg 34%
    14:00 +36°C° 0 mm 2 mps 760 mmHg 35%
    15:00 +36°C° 0 mm 2 mps 760 mmHg 36%
    16:00 +33°C° 0 mm 1 mps 760 mmHg 43%
    17:00 +32°C° 0 mm 1 mps 760 mmHg 49%
    18:00 +29°C° 0 mm 0 mps 760 mmHg 56%
    19:00 +29°C° 0 mm 1 mps 761 mmHg 59%
    20:00 +27°C° 0 mm 1 mps 761 mmHg 61%
    21:00 +24°C° 0 mm 2 mps 762 mmHg 64%
    22:00 +24°C° 0 mm 2 mps 762 mmHg 62%
    23:00 +24°C° 0 mm 2 mps 762 mmHg 61%
    Show more